Year,Month,Day,Hour,Minute,Value (Times are PST for temperature in C)
2018,04,10,00,00,11.10
2018,04,10,00,01,11.10
2018,04,10,00,02,11.10
2018,04,10,00,03,11.10
2018,04,10,00,04,11.10
2018,04,10,00,05,11.10
2018,04,10,00,06,11.00
2018,04,10,00,07,11.00
2018,04,10,00,08,11.00
2018,04,10,00,09,11.00
2018,04,10,00,10,11.00
2018,04,10,00,11,11.00
2018,04,10,00,12,11.10
2018,04,10,00,13,11.10
2018,04,10,00,14,11.10
2018,04,10,00,15,11.10
2018,04,10,00,16,11.10
2018,04,10,00,17,11.10
2018,04,10,00,18,11.10
2018,04,10,00,19,11.10
2018,04,10,00,20,11.10
2018,04,10,00,21,11.10
2018,04,10,00,22,11.10
2018,04,10,00,23,11.10
2018,04,10,00,24,11.10
2018,04,10,00,25,11.10
2018,04,10,00,26,11.00
2018,04,10,00,27,11.00
2018,04,10,00,28,11.00
2018,04,10,00,29,11.00
2018,04,10,00,30,11.00
2018,04,10,00,31,11.00
2018,04,10,00,32,10.90
2018,04,10,00,33,10.90
2018,04,10,00,34,11.00
2018,04,10,00,35,11.10
2018,04,10,00,36,11.10
2018,04,10,00,37,11.10
2018,04,10,00,38,11.10
2018,04,10,00,39,11.10
2018,04,10,00,40,11.10
2018,04,10,00,41,11.10
2018,04,10,00,42,11.00
2018,04,10,00,43,11.00
2018,04,10,00,44,11.00
2018,04,10,00,45,11.00
2018,04,10,00,46,11.00
2018,04,10,00,47,11.10
2018,04,10,00,48,11.20
2018,04,10,00,49,11.20
2018,04,10,00,50,11.20
2018,04,10,00,51,11.20
2018,04,10,00,52,11.30
2018,04,10,00,53,11.30
2018,04,10,00,54,11.40
2018,04,10,00,55,11.40
2018,04,10,00,56,11.30
2018,04,10,00,57,11.30
2018,04,10,00,58,11.20
2018,04,10,00,59,11.20
2018,04,10,01,00,11.20
2018,04,10,01,01,11.20
2018,04,10,01,02,11.30
2018,04,10,01,03,11.30
2018,04,10,01,04,11.40
2018,04,10,01,05,11.50
2018,04,10,01,06,11.50
2018,04,10,01,07,11.50
2018,04,10,01,08,11.40
2018,04,10,01,09,11.40
2018,04,10,01,10,11.30
2018,04,10,01,11,11.30
2018,04,10,01,12,11.20
2018,04,10,01,13,11.20
2018,04,10,01,14,11.20
2018,04,10,01,15,11.20
2018,04,10,01,16,11.20
2018,04,10,01,17,11.20
2018,04,10,01,18,11.20
2018,04,10,01,19,11.20
2018,04,10,01,20,11.20
2018,04,10,01,21,11.20
2018,04,10,01,22,11.20
2018,04,10,01,23,11.20
2018,04,10,01,24,11.20
2018,04,10,01,25,11.30
2018,04,10,01,26,11.30
2018,04,10,01,27,11.30
2018,04,10,01,28,11.30
2018,04,10,01,29,11.30
2018,04,10,01,30,11.30
2018,04,10,01,31,11.30
2018,04,10,01,32,11.30
2018,04,10,01,33,11.30
2018,04,10,01,34,11.30
2018,04,10,01,35,11.30
2018,04,10,01,36,11.30
2018,04,10,01,37,11.30
2018,04,10,01,38,11.30
2018,04,10,01,39,11.30
2018,04,10,01,40,11.30
2018,04,10,01,41,11.20
2018,04,10,01,42,11.20
2018,04,10,01,43,11.20
2018,04,10,01,44,11.30
2018,04,10,01,45,11.30
2018,04,10,01,46,11.20
2018,04,10,01,47,11.20
2018,04,10,01,48,11.20
2018,04,10,01,49,11.20
2018,04,10,01,50,11.20
2018,04,10,01,51,11.20
2018,04,10,01,52,11.20
2018,04,10,01,53,11.20
2018,04,10,01,54,11.20
2018,04,10,01,55,11.20
2018,04,10,01,56,11.20
2018,04,10,01,57,11.20
2018,04,10,01,58,11.20
2018,04,10,01,59,11.20
2018,04,10,02,00,11.30
2018,04,10,02,01,11.30
2018,04,10,02,02,11.30
2018,04,10,02,03,11.30
2018,04,10,02,04,11.30
2018,04,10,02,05,11.30
2018,04,10,02,06,11.20
2018,04,10,02,07,11.30
2018,04,10,02,08,11.30
2018,04,10,02,09,11.30
2018,04,10,02,10,11.30
2018,04,10,02,11,11.40
2018,04,10,02,12,11.40
2018,04,10,02,13,11.40
2018,04,10,02,14,11.40
2018,04,10,02,15,11.40
2018,04,10,02,16,11.40
2018,04,10,02,17,11.40
2018,04,10,02,18,11.20
2018,04,10,02,19,11.20
2018,04,10,02,20,11.10
2018,04,10,02,21,11.10
2018,04,10,02,22,11.10
2018,04,10,02,23,11.00
2018,04,10,02,24,11.00
2018,04,10,02,25,11.00
2018,04,10,02,26,11.10
2018,04,10,02,27,11.10
2018,04,10,02,28,11.10
2018,04,10,02,29,11.10
2018,04,10,02,30,11.10
2018,04,10,02,31,11.10
2018,04,10,02,32,11.10
2018,04,10,02,33,11.10
2018,04,10,02,34,11.10
2018,04,10,02,35,11.10
2018,04,10,02,36,11.20
2018,04,10,02,37,11.20
2018,04,10,02,38,11.20
2018,04,10,02,39,11.20
2018,04,10,02,40,11.10
2018,04,10,02,41,11.10
2018,04,10,02,42,11.10
2018,04,10,02,43,11.10
2018,04,10,02,44,11.10
2018,04,10,02,45,11.10
2018,04,10,02,46,11.10
2018,04,10,02,47,11.10
2018,04,10,02,48,11.10
2018,04,10,02,49,11.10
2018,04,10,02,50,11.10
2018,04,10,02,51,11.10
2018,04,10,02,52,11.10
2018,04,10,02,53,11.10
2018,04,10,02,54,11.10
2018,04,10,02,55,11.10
2018,04,10,02,56,11.10
2018,04,10,02,57,11.00
2018,04,10,02,58,11.00
2018,04,10,02,59,10.90
2018,04,10,03,00,10.90
2018,04,10,03,01,10.90
2018,04,10,03,02,10.80
2018,04,10,03,03,10.80
2018,04,10,03,04,10.80
2018,04,10,03,05,10.90
2018,04,10,03,06,10.90
2018,04,10,03,07,11.00
2018,04,10,03,08,11.10
2018,04,10,03,09,11.10
2018,04,10,03,10,11.10
2018,04,10,03,11,11.10
2018,04,10,03,12,11.10
2018,04,10,03,13,11.10
2018,04,10,03,14,11.10
2018,04,10,03,15,11.10
2018,04,10,03,16,11.10
2018,04,10,03,17,11.10
2018,04,10,03,18,11.10
2018,04,10,03,19,11.10
2018,04,10,03,20,11.10
2018,04,10,03,21,11.10
2018,04,10,03,22,11.00
2018,04,10,03,23,11.00
2018,04,10,03,24,11.00
2018,04,10,03,25,11.00
2018,04,10,03,26,11.10
2018,04,10,03,27,11.10
2018,04,10,03,28,11.10
2018,04,10,03,29,11.10
2018,04,10,03,30,11.10
2018,04,10,03,31,11.20
2018,04,10,03,32,11.20
2018,04,10,03,33,11.30
2018,04,10,03,34,11.30
2018,04,10,03,35,11.30
2018,04,10,03,36,11.40
2018,04,10,03,37,11.40
2018,04,10,03,38,11.40
2018,04,10,03,39,11.40
2018,04,10,03,40,11.30
2018,04,10,03,41,11.30
2018,04,10,03,42,11.30
2018,04,10,03,43,11.30
2018,04,10,03,44,11.30
2018,04,10,03,45,11.20
2018,04,10,03,46,11.20
2018,04,10,03,47,11.20
2018,04,10,03,48,11.20
2018,04,10,03,49,11.10
2018,04,10,03,50,11.10
2018,04,10,03,51,11.10
2018,04,10,03,52,11.20
2018,04,10,03,53,11.20
2018,04,10,03,54,11.20
2018,04,10,03,55,11.20
2018,04,10,03,56,11.20
2018,04,10,03,57,11.20
2018,04,10,03,58,11.20
2018,04,10,03,59,11.20
2018,04,10,04,00,11.30
2018,04,10,04,01,11.30
2018,04,10,04,02,11.40
2018,04,10,04,03,11.50
2018,04,10,04,04,11.50
2018,04,10,04,05,11.60
2018,04,10,04,06,11.60
2018,04,10,04,07,11.60
2018,04,10,04,08,11.60
2018,04,10,04,09,11.60
2018,04,10,04,10,11.50
2018,04,10,04,11,11.50
2018,04,10,04,12,11.50
2018,04,10,04,13,11.40
2018,04,10,04,14,11.40
2018,04,10,04,15,11.50
2018,04,10,04,16,11.40
2018,04,10,04,17,11.40
2018,04,10,04,18,11.40
2018,04,10,04,19,11.30
2018,04,10,04,20,11.30
2018,04,10,04,21,11.30
2018,04,10,04,22,11.30
2018,04,10,04,23,11.30
2018,04,10,04,24,11.30
2018,04,10,04,25,11.30
2018,04,10,04,26,11.30
2018,04,10,04,27,11.20
2018,04,10,04,28,11.20
2018,04,10,04,29,11.20
2018,04,10,04,30,11.20
2018,04,10,04,31,11.20
2018,04,10,04,32,11.10
2018,04,10,04,33,11.00
2018,04,10,04,34,11.00
2018,04,10,04,35,10.90
2018,04,10,04,36,11.00
2018,04,10,04,37,11.00
2018,04,10,04,38,11.10
2018,04,10,04,39,11.00
2018,04,10,04,40,11.00
2018,04,10,04,41,11.10
2018,04,10,04,42,11.10
2018,04,10,04,43,11.20
2018,04,10,04,44,11.20
2018,04,10,04,45,11.20
2018,04,10,04,46,11.20
2018,04,10,04,47,11.20
2018,04,10,04,48,11.30
2018,04,10,04,49,11.30
2018,04,10,04,50,11.30
2018,04,10,04,51,11.40
2018,04,10,04,52,11.40
2018,04,10,04,53,11.40
2018,04,10,04,54,11.40
2018,04,10,04,55,11.40
2018,04,10,04,56,11.50
2018,04,10,04,57,11.50
2018,04,10,04,58,11.50
2018,04,10,04,59,11.50
2018,04,10,05,00,11.40
2018,04,10,05,01,11.40
2018,04,10,05,02,11.30
2018,04,10,05,03,11.30
2018,04,10,05,04,11.20
2018,04,10,05,05,11.00
2018,04,10,05,06,10.90
2018,04,10,05,07,10.80
2018,04,10,05,08,10.80
2018,04,10,05,09,10.80
2018,04,10,05,10,10.80
2018,04,10,05,11,10.70
2018,04,10,05,12,10.60
2018,04,10,05,13,10.50
2018,04,10,05,14,10.40
2018,04,10,05,15,10.50
2018,04,10,05,16,10.50
2018,04,10,05,17,10.60
2018,04,10,05,18,10.60
2018,04,10,05,19,10.70
2018,04,10,05,20,10.70
2018,04,10,05,21,10.80
2018,04,10,05,22,10.90
2018,04,10,05,23,11.00
2018,04,10,05,24,11.10
2018,04,10,05,25,11.10
2018,04,10,05,26,11.20
2018,04,10,05,27,11.30
2018,04,10,05,28,11.30
2018,04,10,05,29,11.30
2018,04,10,05,30,11.30
2018,04,10,05,31,11.30
2018,04,10,05,32,11.30
2018,04,10,05,33,11.30
2018,04,10,05,34,11.40
2018,04,10,05,35,11.40
2018,04,10,05,36,11.40
2018,04,10,05,37,11.40
2018,04,10,05,38,11.40
2018,04,10,05,39,11.40
2018,04,10,05,40,11.40
2018,04,10,05,41,11.40
2018,04,10,05,42,11.40
2018,04,10,05,43,11.50
2018,04,10,05,44,11.50
2018,04,10,05,45,11.60
2018,04,10,05,46,11.60
2018,04,10,05,47,11.60
2018,04,10,05,48,11.50
2018,04,10,05,49,11.40
2018,04,10,05,50,11.40
2018,04,10,05,51,11.50
2018,04,10,05,52,11.50
2018,04,10,05,53,11.50
2018,04,10,05,54,11.50
2018,04,10,05,55,11.50
2018,04,10,05,56,11.60
2018,04,10,05,57,11.60
2018,04,10,05,58,11.60
2018,04,10,05,59,11.60
2018,04,10,06,00,11.60
2018,04,10,06,01,11.60
2018,04,10,06,02,11.60
2018,04,10,06,03,11.60
2018,04,10,06,04,11.40
2018,04,10,06,05,11.40
2018,04,10,06,06,11.30
2018,04,10,06,07,11.30
2018,04,10,06,08,11.30
2018,04,10,06,09,11.30
2018,04,10,06,10,11.30
2018,04,10,06,11,11.40
2018,04,10,06,12,11.40
2018,04,10,06,13,11.40
2018,04,10,06,14,11.40
2018,04,10,06,15,11.40
2018,04,10,06,16,11.40
2018,04,10,06,17,11.40
2018,04,10,06,18,11.40
2018,04,10,06,19,11.40
2018,04,10,06,20,11.40
2018,04,10,06,21,11.40
2018,04,10,06,22,11.40
2018,04,10,06,23,11.50
2018,04,10,06,24,11.40
2018,04,10,06,25,11.40
2018,04,10,06,26,11.40
2018,04,10,06,27,11.40
2018,04,10,06,28,11.40
2018,04,10,06,29,11.40
2018,04,10,06,30,11.40
2018,04,10,06,31,11.40
2018,04,10,06,32,11.30
2018,04,10,06,33,11.30
2018,04,10,06,34,11.30
2018,04,10,06,35,11.30
2018,04,10,06,36,11.30
2018,04,10,06,37,11.30
2018,04,10,06,38,11.40
2018,04,10,06,39,11.40
2018,04,10,06,40,11.40
2018,04,10,06,41,11.50
2018,04,10,06,42,11.50
2018,04,10,06,43,11.50
2018,04,10,06,44,11.60
2018,04,10,06,45,11.60
2018,04,10,06,46,11.60
2018,04,10,06,47,11.60
2018,04,10,06,48,11.60
2018,04,10,06,49,11.60
2018,04,10,06,50,11.60
2018,04,10,06,51,11.70
2018,04,10,06,52,11.60
2018,04,10,06,53,11.60
2018,04,10,06,54,11.60
2018,04,10,06,55,11.50
2018,04,10,06,56,11.30
2018,04,10,06,57,11.20
2018,04,10,06,58,11.20
2018,04,10,06,59,11.10
2018,04,10,07,00,11.10
2018,04,10,07,01,11.10
2018,04,10,07,02,11.00
2018,04,10,07,03,11.00
2018,04,10,07,04,11.10
2018,04,10,07,05,11.10
2018,04,10,07,06,11.10
2018,04,10,07,07,11.10
2018,04,10,07,08,11.10
2018,04,10,07,09,11.20
2018,04,10,07,10,11.20
2018,04,10,07,11,11.20
2018,04,10,07,12,11.20
2018,04,10,07,13,11.20
2018,04,10,07,14,11.20
2018,04,10,07,15,11.20
2018,04,10,07,16,11.20
2018,04,10,07,17,11.20
2018,04,10,07,18,11.20
2018,04,10,07,19,11.20
2018,04,10,07,20,11.10
2018,04,10,07,21,11.20
2018,04,10,07,22,11.20
2018,04,10,07,23,11.20
2018,04,10,07,24,11.20
2018,04,10,07,25,11.10
2018,04,10,07,26,11.10
2018,04,10,07,27,11.10
2018,04,10,07,28,11.10
2018,04,10,07,29,11.10
2018,04,10,07,30,11.00
2018,04,10,07,31,10.90
2018,04,10,07,32,10.80
2018,04,10,07,33,10.60
2018,04,10,07,34,10.50
2018,04,10,07,35,10.40
2018,04,10,07,36,10.40
2018,04,10,07,37,10.40
2018,04,10,07,38,10.50
2018,04,10,07,39,10.60
2018,04,10,07,40,10.60
2018,04,10,07,41,10.50
2018,04,10,07,42,10.30
2018,04,10,07,43,10.20
2018,04,10,07,44,10.20
2018,04,10,07,45,10.20
2018,04,10,07,46,10.10
2018,04,10,07,47,10.10
2018,04,10,07,48,10.10
2018,04,10,07,49,10.10
2018,04,10,07,50,10.10
2018,04,10,07,51,10.20
2018,04,10,07,52,10.30
2018,04,10,07,53,10.30
2018,04,10,07,54,10.30
2018,04,10,07,55,10.40
2018,04,10,07,56,10.40
2018,04,10,07,57,10.40
2018,04,10,07,58,10.40
2018,04,10,07,59,10.30
2018,04,10,08,00,10.30
2018,04,10,08,01,10.40
2018,04,10,08,02,10.40
2018,04,10,08,03,10.30
2018,04,10,08,04,10.30
2018,04,10,08,05,10.20
2018,04,10,08,06,10.10
2018,04,10,08,07,10.10
2018,04,10,08,08,10.10
2018,04,10,08,09,10.10
2018,04,10,08,10,10.10
2018,04,10,08,11,10.10
2018,04,10,08,12,10.20
2018,04,10,08,13,10.30
2018,04,10,08,14,10.50
2018,04,10,08,15,10.60
2018,04,10,08,16,10.60
2018,04,10,08,17,10.70
2018,04,10,08,18,10.70
2018,04,10,08,19,10.80
2018,04,10,08,20,10.80
2018,04,10,08,21,10.80
2018,04,10,08,22,10.80
2018,04,10,08,23,10.80
2018,04,10,08,24,10.80
2018,04,10,08,25,10.80
2018,04,10,08,26,10.90
2018,04,10,08,27,10.90
2018,04,10,08,28,11.00
2018,04,10,08,29,11.00
2018,04,10,08,30,11.00
2018,04,10,08,31,11.00
2018,04,10,08,32,11.10
2018,04,10,08,33,11.10
2018,04,10,08,34,11.10
2018,04,10,08,35,11.30
2018,04,10,08,36,11.50
2018,04,10,08,37,11.60
2018,04,10,08,38,11.70
2018,04,10,08,39,11.70
2018,04,10,08,40,11.70
2018,04,10,08,41,11.70
2018,04,10,08,42,11.70
2018,04,10,08,43,11.70
2018,04,10,08,44,11.80
2018,04,10,08,45,11.90
2018,04,10,08,46,11.90
2018,04,10,08,47,11.90
2018,04,10,08,48,12.00
2018,04,10,08,49,12.00
2018,04,10,08,50,12.10
2018,04,10,08,51,12.10
2018,04,10,08,52,12.00
2018,04,10,08,53,12.00
2018,04,10,08,54,11.90
2018,04,10,08,55,11.90
2018,04,10,08,56,11.90
2018,04,10,08,57,11.90
2018,04,10,08,58,11.90
2018,04,10,08,59,12.00
2018,04,10,09,00,12.00
2018,04,10,09,01,11.90
2018,04,10,09,02,11.90
2018,04,10,09,03,11.90
2018,04,10,09,04,11.90
2018,04,10,09,05,11.80
2018,04,10,09,06,11.80
2018,04,10,09,07,11.70
2018,04,10,09,08,11.70
2018,04,10,09,09,11.60
2018,04,10,09,10,11.60
2018,04,10,09,11,11.50
2018,04,10,09,12,11.40
2018,04,10,09,13,11.40
2018,04,10,09,14,11.30
2018,04,10,09,15,11.30
2018,04,10,09,16,11.20
2018,04,10,09,17,11.20
2018,04,10,09,18,11.30
2018,04,10,09,19,11.30
2018,04,10,09,20,11.30
2018,04,10,09,21,11.40
2018,04,10,09,22,11.40
2018,04,10,09,23,11.50
2018,04,10,09,24,11.50
2018,04,10,09,25,11.50
2018,04,10,09,26,11.60
2018,04,10,09,27,11.60
2018,04,10,09,28,11.60
2018,04,10,09,29,11.60
2018,04,10,09,30,11.70
2018,04,10,09,31,11.70
2018,04,10,09,32,11.70
2018,04,10,09,33,11.70
2018,04,10,09,34,11.70
2018,04,10,09,35,11.70
2018,04,10,09,36,11.70
2018,04,10,09,37,11.70
2018,04,10,09,38,11.60
2018,04,10,09,39,11.70
2018,04,10,09,40,11.70
2018,04,10,09,41,11.70
2018,04,10,09,42,11.70
2018,04,10,09,43,11.60
2018,04,10,09,44,11.50
2018,04,10,09,45,11.50
2018,04,10,09,46,11.40
2018,04,10,09,47,11.40
2018,04,10,09,48,11.30
2018,04,10,09,49,11.30
2018,04,10,09,50,11.30
2018,04,10,09,51,11.30
2018,04,10,09,52,11.20
2018,04,10,09,53,11.20
2018,04,10,09,54,11.20
2018,04,10,09,55,11.20
2018,04,10,09,56,11.20
2018,04,10,09,57,11.20
2018,04,10,09,58,11.20
2018,04,10,09,59,11.20
2018,04,10,10,00,11.20
2018,04,10,10,01,11.10
2018,04,10,10,02,11.10
2018,04,10,10,03,11.00
2018,04,10,10,04,10.90
2018,04,10,10,05,11.00
2018,04,10,10,06,11.10
2018,04,10,10,07,11.20
2018,04,10,10,08,11.30
2018,04,10,10,09,11.40
2018,04,10,10,10,11.50
2018,04,10,10,11,11.50
2018,04,10,10,12,11.60
2018,04,10,10,13,11.60
2018,04,10,10,14,11.50
2018,04,10,10,15,11.40
2018,04,10,10,16,11.20
2018,04,10,10,17,11.00
2018,04,10,10,18,10.80
2018,04,10,10,19,10.70
2018,04,10,10,20,10.60
2018,04,10,10,21,10.60
2018,04,10,10,22,10.60
2018,04,10,10,23,10.50
2018,04,10,10,24,10.40
2018,04,10,10,25,10.40
2018,04,10,10,26,10.30
2018,04,10,10,27,10.30
2018,04,10,10,28,10.30
2018,04,10,10,29,10.20
2018,04,10,10,30,10.20
2018,04,10,10,31,10.20
2018,04,10,10,32,10.20
2018,04,10,10,33,10.20
2018,04,10,10,34,10.30
2018,04,10,10,35,10.40
2018,04,10,10,36,10.40
2018,04,10,10,37,10.40
2018,04,10,10,38,10.40
2018,04,10,10,39,10.40
2018,04,10,10,40,10.40
2018,04,10,10,41,10.30
2018,04,10,10,42,10.30
2018,04,10,10,43,10.30
2018,04,10,10,44,10.30
2018,04,10,10,45,10.30
2018,04,10,10,46,10.30
2018,04,10,10,47,10.30
2018,04,10,10,48,10.40
2018,04,10,10,49,10.40
2018,04,10,10,50,10.40
2018,04,10,10,51,10.50
2018,04,10,10,52,10.50
2018,04,10,10,53,10.40
2018,04,10,10,54,10.40
2018,04,10,10,55,10.40
2018,04,10,10,56,10.50
2018,04,10,10,57,10.50
2018,04,10,10,58,10.40
2018,04,10,10,59,10.40
2018,04,10,11,00,10.40
2018,04,10,11,01,10.40
2018,04,10,11,02,10.40
2018,04,10,11,03,10.30
2018,04,10,11,04,10.30
2018,04,10,11,05,10.40
2018,04,10,11,06,10.40
2018,04,10,11,07,10.40
2018,04,10,11,08,10.50
2018,04,10,11,09,10.50
2018,04,10,11,10,10.50
2018,04,10,11,11,10.50
2018,04,10,11,12,10.50
2018,04,10,11,13,10.40
2018,04,10,11,14,10.30
2018,04,10,11,15,10.30
2018,04,10,11,16,10.30
2018,04,10,11,17,10.30
2018,04,10,11,18,10.30
2018,04,10,12,06,10.60
2018,04,10,12,07,10.60
2018,04,10,12,08,10.60
2018,04,10,12,09,10.60
2018,04,10,12,10,10.60
2018,04,10,12,11,10.60
2018,04,10,12,12,10.70
2018,04,10,12,13,10.70
2018,04,10,12,14,10.70
2018,04,10,12,15,10.70
2018,04,10,12,16,10.70
2018,04,10,12,17,10.70
2018,04,10,12,18,10.70
2018,04,10,12,19,10.70
2018,04,10,12,20,10.80
2018,04,10,12,21,10.70
2018,04,10,12,22,10.70
2018,04,10,12,23,10.60
2018,04,10,12,24,10.70
2018,04,10,12,25,10.70
2018,04,10,12,26,10.80
2018,04,10,12,27,10.80
2018,04,10,12,28,10.80
2018,04,10,12,29,10.80
2018,04,10,12,30,10.80
2018,04,10,12,31,10.80
2018,04,10,12,32,10.80
2018,04,10,12,33,10.80
2018,04,10,12,34,10.80
2018,04,10,12,35,10.80
2018,04,10,12,36,10.80
2018,04,10,12,37,10.80
2018,04,10,12,38,10.80
2018,04,10,12,39,10.80
2018,04,10,12,40,10.80
2018,04,10,12,41,10.80
2018,04,10,12,42,10.70
2018,04,10,12,43,10.80
2018,04,10,12,44,10.80
2018,04,10,12,45,10.90
2018,04,10,12,46,10.90
2018,04,10,12,47,10.90
2018,04,10,12,48,10.90
2018,04,10,12,49,10.90
2018,04,10,12,50,10.90
2018,04,10,12,51,11.00
2018,04,10,12,52,11.00
2018,04,10,12,53,11.00
2018,04,10,12,54,10.90
2018,04,10,12,55,10.90
2018,04,10,12,56,10.90
2018,04,10,12,57,10.90
2018,04,10,12,58,10.90
2018,04,10,12,59,11.00
2018,04,10,13,00,11.00
2018,04,10,13,01,11.00
2018,04,10,13,02,11.00
2018,04,10,13,03,11.10
2018,04,10,13,04,11.10
2018,04,10,13,05,11.10
2018,04,10,13,06,11.10
2018,04,10,13,07,11.20
2018,04,10,13,08,11.30
2018,04,10,13,09,11.20
2018,04,10,13,10,11.20
2018,04,10,13,11,11.20
2018,04,10,13,12,11.30
2018,04,10,13,13,11.30
2018,04,10,13,14,11.30
2018,04,10,13,15,11.30
2018,04,10,13,16,11.40
2018,04,10,13,17,11.40
2018,04,10,13,18,11.40
2018,04,10,13,19,11.40
2018,04,10,13,20,11.40
2018,04,10,13,21,11.40
2018,04,10,13,22,11.40
2018,04,10,13,23,11.50
2018,04,10,13,24,11.60
2018,04,10,13,25,11.60
2018,04,10,13,26,11.50
2018,04,10,13,27,11.40
2018,04,10,13,28,11.40
2018,04,10,13,29,11.40
2018,04,10,13,30,11.40
2018,04,10,13,31,11.40
2018,04,10,13,32,11.40
2018,04,10,13,33,11.40
2018,04,10,13,34,11.40
2018,04,10,13,35,11.40
2018,04,10,13,36,11.40
2018,04,10,13,37,11.40
2018,04,10,13,38,11.40
2018,04,10,13,39,11.40
2018,04,10,13,40,11.40
2018,04,10,13,41,11.40
2018,04,10,13,42,11.40
2018,04,10,13,43,11.40
2018,04,10,13,44,11.40
2018,04,10,13,45,11.40
2018,04,10,13,46,11.50
2018,04,10,13,47,11.40
2018,04,10,13,48,11.50
2018,04,10,13,49,11.60
2018,04,10,13,50,11.60
2018,04,10,13,51,11.60
2018,04,10,13,52,11.60
2018,04,10,13,53,11.60
2018,04,10,13,54,11.60
2018,04,10,13,55,11.70
2018,04,10,13,56,11.70
2018,04,10,13,57,11.70
2018,04,10,13,58,11.70
2018,04,10,13,59,11.80
2018,04,10,14,00,11.80
2018,04,10,14,01,11.90
2018,04,10,14,02,11.90
2018,04,10,14,03,11.90
2018,04,10,14,04,11.80
2018,04,10,14,05,11.80
2018,04,10,14,06,11.90
2018,04,10,14,07,12.00
2018,04,10,14,08,12.10
2018,04,10,14,09,12.20
2018,04,10,14,10,12.20
2018,04,10,14,11,12.10
2018,04,10,14,12,12.00
2018,04,10,14,13,11.90
2018,04,10,14,14,11.90
2018,04,10,14,15,11.80
2018,04,10,14,16,11.90
2018,04,10,14,17,11.90
2018,04,10,14,18,12.00
2018,04,10,14,19,11.90
2018,04,10,14,20,11.90
2018,04,10,14,21,11.90
2018,04,10,14,22,11.90
2018,04,10,14,23,11.90
2018,04,10,14,24,11.90
2018,04,10,14,25,11.90
2018,04,10,14,26,12.00
2018,04,10,14,27,12.10
2018,04,10,14,28,12.10
2018,04,10,14,29,12.10
2018,04,10,14,30,12.10
2018,04,10,14,31,12.10
2018,04,10,14,32,12.10
2018,04,10,14,33,12.10
2018,04,10,14,34,12.10
2018,04,10,14,35,12.10
2018,04,10,14,36,12.10
2018,04,10,14,37,12.10
2018,04,10,14,38,12.00
2018,04,10,14,39,12.00
2018,04,10,14,40,11.90
2018,04,10,14,41,12.00
2018,04,10,14,42,12.10
2018,04,10,14,43,12.10
2018,04,10,14,44,12.10
2018,04,10,14,45,12.20
2018,04,10,14,46,12.20
2018,04,10,14,47,12.20
2018,04,10,14,48,12.20
2018,04,10,14,49,12.30
2018,04,10,14,50,12.30
2018,04,10,14,51,12.20
2018,04,10,14,52,12.10
2018,04,10,14,53,12.00
2018,04,10,14,54,11.90
2018,04,10,14,55,12.00
2018,04,10,14,56,12.00
2018,04,10,14,57,12.10
2018,04,10,14,58,12.20
2018,04,10,14,59,12.20
2018,04,10,15,00,12.20
2018,04,10,15,01,12.30
2018,04,10,15,02,12.50
2018,04,10,15,03,12.50
2018,04,10,15,04,12.40
2018,04,10,15,05,12.40
2018,04,10,15,06,12.40
2018,04,10,15,07,12.40
2018,04,10,15,08,12.40
2018,04,10,15,09,12.30
2018,04,10,15,10,12.30
2018,04,10,15,11,12.30
2018,04,10,15,12,12.30
2018,04,10,15,13,12.30
2018,04,10,15,14,12.30
2018,04,10,15,15,12.40
2018,04,10,15,16,12.40
2018,04,10,15,17,12.50
2018,04,10,15,18,12.50
2018,04,10,15,19,12.40
2018,04,10,15,20,12.40
2018,04,10,15,21,12.30
2018,04,10,15,22,12.30
2018,04,10,15,23,12.30
2018,04,10,15,24,12.30
2018,04,10,15,25,12.20
2018,04,10,15,26,12.20
2018,04,10,15,27,12.30
2018,04,10,15,28,12.40
2018,04,10,15,29,12.40
2018,04,10,15,30,12.40
2018,04,10,15,31,12.40
2018,04,10,15,32,12.40
2018,04,10,15,33,12.40
2018,04,10,15,34,12.40
2018,04,10,15,35,12.00
2018,04,10,15,36,12.10
2018,04,10,15,37,12.30
2018,04,10,15,38,12.30
2018,04,10,15,39,12.30
2018,04,10,15,40,12.20
2018,04,10,15,41,12.10
2018,04,10,15,42,12.10
2018,04,10,15,43,12.10
2018,04,10,15,44,12.20
2018,04,10,15,45,12.20
2018,04,10,15,46,12.20
2018,04,10,15,47,12.20
2018,04,10,15,48,12.10
2018,04,10,15,49,12.00
2018,04,10,15,50,11.90
2018,04,10,15,51,11.90
2018,04,10,15,52,11.90
2018,04,10,15,53,11.90
2018,04,10,15,54,11.90
2018,04,10,15,55,11.90
2018,04,10,15,56,11.90
2018,04,10,15,57,11.90
2018,04,10,15,58,11.90
2018,04,10,15,59,11.90
2018,04,10,16,00,11.90
2018,04,10,16,01,12.00
2018,04,10,16,02,11.90
2018,04,10,16,03,11.90
2018,04,10,16,04,11.80
2018,04,10,16,05,11.70
2018,04,10,16,06,11.80
2018,04,10,16,07,11.80
2018,04,10,16,08,11.90
2018,04,10,16,09,11.90
2018,04,10,16,10,11.90
2018,04,10,16,11,11.80
2018,04,10,16,12,11.80
2018,04,10,16,13,11.80
2018,04,10,16,14,11.70
2018,04,10,16,15,11.70
2018,04,10,16,16,11.60
2018,04,10,16,17,11.60
2018,04,10,16,18,11.60
2018,04,10,16,19,11.60
2018,04,10,16,20,11.60
2018,04,10,16,21,11.70
2018,04,10,16,22,11.70
2018,04,10,16,23,11.70
2018,04,10,16,24,11.70
2018,04,10,16,25,11.80
2018,04,10,16,26,11.70
2018,04,10,16,27,11.70
2018,04,10,16,28,11.70
2018,04,10,16,29,11.80
2018,04,10,16,30,11.90
2018,04,10,16,31,12.00
2018,04,10,16,32,12.00
2018,04,10,16,33,12.10
2018,04,10,16,34,12.10
2018,04,10,16,35,12.20
2018,04,10,16,36,12.20
2018,04,10,16,37,12.10
2018,04,10,16,38,12.10
2018,04,10,16,39,12.10
2018,04,10,16,40,12.00
2018,04,10,16,41,12.00
2018,04,10,16,42,11.90
2018,04,10,16,43,11.90
2018,04,10,16,44,11.80
2018,04,10,16,45,11.80
2018,04,10,16,46,11.80
2018,04,10,16,47,11.70
2018,04,10,16,48,11.70
2018,04,10,16,49,11.70
2018,04,10,16,50,11.70
2018,04,10,16,51,11.60
2018,04,10,16,52,11.60
2018,04,10,16,53,11.60
2018,04,10,16,54,11.60
2018,04,10,16,55,11.60
2018,04,10,16,56,11.70
2018,04,10,16,57,11.80
2018,04,10,16,58,11.80
2018,04,10,16,59,11.90
2018,04,10,17,00,11.90
2018,04,10,17,01,11.90
2018,04,10,17,02,11.90
2018,04,10,17,03,11.90
2018,04,10,17,04,11.90
2018,04,10,17,05,11.90
2018,04,10,17,06,11.90
2018,04,10,17,07,12.00
2018,04,10,17,08,12.00
2018,04,10,17,09,11.90
2018,04,10,17,10,11.90
2018,04,10,17,11,12.00
2018,04,10,17,12,12.10
2018,04,10,17,13,12.20
2018,04,10,17,14,12.20
2018,04,10,17,15,12.30
2018,04,10,17,16,12.30
2018,04,10,17,17,12.30
2018,04,10,17,18,12.30
2018,04,10,17,19,12.30
2018,04,10,17,20,12.30
2018,04,10,17,21,12.30
2018,04,10,17,22,12.30
2018,04,10,17,23,12.30
2018,04,10,17,24,12.30
2018,04,10,17,25,12.20
2018,04,10,17,26,12.20
2018,04,10,17,27,12.10
2018,04,10,17,28,12.10
2018,04,10,17,29,12.20
2018,04,10,17,30,12.30
2018,04,10,17,31,12.30
2018,04,10,17,32,12.40
2018,04,10,17,33,12.40
2018,04,10,17,34,12.50
2018,04,10,17,35,12.50
2018,04,10,17,36,12.40
2018,04,10,17,37,12.40
2018,04,10,17,38,12.50
2018,04,10,17,39,12.50
2018,04,10,17,40,12.50
2018,04,10,17,41,12.50
2018,04,10,17,42,12.50
2018,04,10,17,43,12.40
2018,04,10,17,44,12.40
2018,04,10,17,45,12.50
2018,04,10,17,46,12.50
2018,04,10,17,47,12.50
2018,04,10,17,48,12.50
2018,04,10,17,49,12.40
2018,04,10,17,50,12.40
2018,04,10,17,51,12.40
2018,04,10,17,52,12.30
2018,04,10,17,53,12.30
2018,04,10,17,54,12.30
2018,04,10,17,55,12.30
2018,04,10,17,56,12.30
2018,04,10,17,57,12.30
2018,04,10,17,58,12.30
2018,04,10,17,59,12.30
2018,04,10,18,00,12.30
2018,04,10,18,01,12.30
2018,04,10,18,02,12.40
2018,04,10,18,03,12.50
2018,04,10,18,04,12.50
2018,04,10,18,05,12.40
2018,04,10,18,06,12.30